カタログに戻る

CZ-4B DEB

運用中PO
NORAD 38310·DEBRIS·🇨🇳 China

打ち上げ Dec 22, 2011 から Taiyuan Satellite Launch Center

Loading…

次のパス (今後24時間)

TLE

最新Source: Space-Track

元期: Sep 14, 2026, 08:37 UTC

1 38310U 11079D   26257.35950932  .00002338  00000-0  43905-3 0  9991
2 38310  98.7109 212.1156 0097363 273.5423 239.2601 14.62772653775514

AllMySatでCZ-4B DEBをリアルタイム追跡

Download on the App Store